| time (UTC) | temp F | wind direction | speed MPH | gust MPH | rain 1hr in | rain 24hr in | rain mn in | humidity % | barometer mb |
| 20260507091602 | 58 | 42 | 6.0 | 10.0 | 0.00 | 0.00 | 0.00 | 76 | 1013.1 |
| 20260507090042 | 58 | 37 | 4.0 | 10.0 | 0.00 | 0.00 | 0.00 | 75 | 1013.1 |
| 20260507084602 | 58 | 43 | 2.0 | 8.0 | 0.00 | 0.00 | 0.00 | 79 | 1013.1 |
| 20260507083046 | 57 | 46 | 3.0 | 6.0 | 0.00 | 0.00 | 0.00 | 79 | 1013.0 |
| 20260507081607 | 57 | 59 | 2.0 | 8.0 | 0.00 | 0.00 | 0.00 | 80 | 1013.1 |
| 20260507080147 | 56 | 35 | 4.0 | 10.0 | 0.00 | 0.00 | 0.00 | 83 | 1013.0 |
| 20260507074650 | 57 | 76 | 7.0 | 12.0 | 0.00 | 0.00 | 0.00 | 83 | 1012.9 |
| 20260507073149 | 57 | 23 | 1.0 | 13.0 | 0.00 | 0.00 | 0.00 | 83 | 1012.7 |
| 20260507070146 | 54 | 289 | 3.0 | 11.0 | 0.00 | 0.00 | 0.00 | 87 | 1013.0 |
| 20260507064649 | 54 | 69 | 1.0 | 4.0 | 0.00 | 0.00 | 0.00 | 88 | 1012.9 |
| 20260507063002 | 53 | 79 | 0.0 | 8.0 | 0.00 | 0.00 | 0.00 | 91 | 1012.9 |
| 20260507061504 | 48 | 42 | 0.0 | 2.0 | 0.00 | 0.00 | 0.00 | 90 | 1012.9 |
| 20260507060155 | 48 | 272 | 0.0 | 2.0 | 0.00 | 0.00 | 0.00 | 89 | 1012.7 |
| 20260507054506 | 47 | 293 | 0.0 | 2.0 | 0.00 | 0.00 | 0.00 | 91 | 1012.6 |
| 20260507053047 | 46 | 290 | 0.0 | 2.0 | 0.00 | 0.00 | 0.00 | 89 | 1012.4 |
| 20260507051608 | 45 | 277 | 0.0 | 3.0 | 0.00 | 0.00 | 0.00 | 89 | 1012.2 |
| 20260507050112 | 45 | 276 | 0.0 | 3.0 | 0.00 | 0.00 | 0.00 | 89 | 1012.2 |
| 20260507044618 | 45 | 266 | 2.0 | 4.0 | 0.00 | 0.00 | 0.00 | 88 | 1012.0 |
| 20260507043156 | 45 | 263 | 0.0 | 4.0 | 0.00 | 0.00 | 0.00 | 88 | 1012.0 |
| 20260507041515 | 45 | 274 | 2.0 | 4.0 | 0.00 | 0.00 | 0.00 | 88 | 1012.1 |
| 20260507040023 | 45 | 262 | 2.0 | 4.0 | 0.00 | 0.00 | 0.00 | 88 | 1012.2 |
| 20260507034635 | 45 | 281 | 1.0 | 4.0 | 0.00 | 0.00 | 0.00 | 88 | 1012.2 |
| 20260507033148 | 46 | 273 | 1.0 | 3.0 | 0.00 | 0.00 | 0.00 | 87 | 1012.2 |
| 20260507031507 | 46 | 268 | 2.0 | 3.0 | 0.00 | 0.00 | 0.00 | 87 | 1012.1 |
| 20260507030034 | 46 | 282 | 1.0 | 4.0 | 0.00 | 0.00 | 0.00 | 88 | 1012.1 |
| 20260507024622 | 46 | 264 | 2.0 | 3.0 | 0.00 | 0.00 | 0.00 | 88 | 1011.9 |
| 20260507023145 | 47 | 264 | 1.0 | 3.0 | 0.00 | 0.00 | 0.00 | 87 | 1011.8 |
| 20260507021658 | 47 | 264 | 0.0 | 2.0 | 0.00 | 0.00 | 0.00 | 86 | 1011.7 |
| 20260507020159 | 47 | 264 | 0.0 | 2.0 | 0.00 | 0.00 | 0.00 | 86 | 1011.7 |
| 20260507014525 | 47 | 250 | 0.0 | 3.0 | 0.00 | 0.00 | 0.00 | 86 | 1011.8 |
| 20260507013038 | 47 | 271 | 2.0 | 4.0 | 0.00 | 0.00 | 0.00 | 86 | 1011.8 |
| 20260507011605 | 47 | 279 | 1.0 | 3.0 | 0.00 | 0.00 | 0.00 | 86 | 1012.0 |
| 20260507010047 | 48 | 266 | 1.0 | 4.0 | 0.00 | 0.00 | 0.00 | 86 | 1012.0 |
| 20260507004606 | 48 | 291 | 1.0 | 3.0 | 0.00 | 0.00 | 0.00 | 86 | 1012.1 |
| 20260507003121 | 48 | 268 | 2.0 | 3.0 | 0.00 | 0.00 | 0.00 | 86 | 1012.1 |
| 20260507001647 | 48 | 268 | 2.0 | 3.0 | 0.00 | 0.00 | 0.00 | 86 | 1012.1 |
| 20260507000157 | 48 | 264 | 2.0 | 3.0 | 0.00 | 0.00 | 0.00 | 86 | 1012.3 |
| 20260506234524 | 49 | 264 | 0.0 | 3.0 | 0.00 | 0.00 | 0.00 | 85 | 1012.3 |
| 20260506233102 | 50 | 258 | 2.0 | 3.0 | 0.00 | 0.00 | 0.00 | 85 | 1012.5 |
| 20260506231526 | 50 | 288 | 1.0 | 2.0 | 0.00 | 0.00 | 0.00 | 86 | 1012.6 |
| 20260506230005 | 50 | 254 | 0.0 | 2.0 | 0.00 | 0.00 | 0.00 | 86 | 1012.5 |
| 20260506224505 | 50 | 254 | 1.0 | 4.0 | 0.00 | 0.00 | 0.00 | 86 | 1012.5 |
| 20260506223136 | 49 | 272 | 2.0 | 4.0 | 0.00 | 0.00 | 0.00 | 86 | 1012.5 |
| 20260506221528 | 49 | 265 | 2.0 | 4.0 | 0.00 | 0.00 | 0.00 | 87 | 1012.5 |
| 20260506220004 | 49 | 258 | 2.0 | 3.0 | 0.00 | 0.00 | 0.00 | 87 | 1012.5 |
| 20260506214626 | 50 | 287 | 1.0 | 2.0 | 0.00 | 0.00 | 0.00 | 87 | 1012.6 |
| 20260506213127 | 50 | 287 | 0.0 | 3.0 | 0.00 | 0.00 | 0.00 | 86 | 1012.5 |
| 20260506211515 | 50 | 246 | 0.0 | 3.0 | 0.00 | 0.00 | 0.00 | 86 | 1012.5 |
| 20260506204511 | 51 | 283 | 1.0 | 2.0 | 0.00 | 0.00 | 0.00 | 85 | 1012.4 |
| 20260506203102 | 51 | 277 | 3.0 | 6.0 | 0.00 | 0.00 | 0.00 | 86 | 1012.2 |
| 20260506201558 | 51 | 283 | 2.0 | 4.0 | 0.00 | 0.00 | 0.00 | 85 | 1012.1 |
| 20260506200016 | 52 | 266 | 1.0 | 4.0 | 0.00 | 0.00 | 0.00 | 84 | 1011.8 |
| 20260506194533 | 52 | 276 | 1.0 | 6.0 | 0.00 | 0.01 | 0.00 | 83 | 1011.7 |
| 20260506193034 | 53 | 281 | 1.0 | 4.0 | 0.00 | 0.01 | 0.00 | 82 | 1011.3 |
| 20260506191526 | 54 | 273 | 2.0 | 4.0 | 0.00 | 0.01 | 0.00 | 79 | 1011.1 |
| 20260506190109 | 55 | 258 | 2.0 | 3.0 | 0.00 | 0.01 | 0.00 | 78 | 1011.0 |
| 20260506183137 | 57 | 281 | 0.0 | 3.0 | 0.00 | 0.02 | 0.00 | 73 | 1010.6 |
| 20260506180121 | 60 | 333 | 0.0 | 2.0 | 0.00 | 0.02 | 0.00 | 65 | 1010.7 |
| 20260506174508 | 62 | 118 | 2.0 | 6.0 | 0.00 | 0.05 | 0.00 | 59 | 1010.6 |
| 20260506173002 | 62 | 125 | 3.0 | 5.0 | 0.00 | 0.05 | 0.00 | 57 | 1010.6 |
| 20260506171538 | 62 | 135 | 4.0 | 7.0 | 0.00 | 0.05 | 0.00 | 56 | 1010.5 |
| 20260506170021 | 63 | 64 | 3.0 | 7.0 | 0.00 | 0.05 | 0.00 | 56 | 1010.6 |
| 20260506164535 | 63 | 138 | 0.0 | 3.0 | 0.00 | 0.05 | 0.00 | 58 | 1010.7 |
| 20260506163053 | 62 | 133 | 3.0 | 5.0 | 0.00 | 0.05 | 0.00 | 57 | 1010.6 |
| 20260506161619 | 62 | 141 | 0.0 | 2.0 | 0.00 | 0.05 | 0.00 | 59 | 1010.8 |
| 20260506160108 | 60 | 129 | 1.0 | 6.0 | 0.00 | 0.05 | 0.00 | 63 | 1010.8 |
| 20260506154631 | 60 | 171 | 2.0 | 8.0 | 0.00 | 0.05 | 0.00 | 65 | 1010.9 |
| 20260506153144 | 60 | 156 | 4.0 | 8.0 | 0.00 | 0.05 | 0.00 | 67 | 1011.0 |
| 20260506151649 | 60 | 127 | 6.0 | 10.0 | 0.00 | 0.05 | 0.00 | 67 | 1011.0 |
| 20260506150115 | 60 | 177 | 4.0 | 12.0 | 0.00 | 0.05 | 0.00 | 67 | 1011.1 |
| 20260506144700 | 62 | 179 | 7.0 | 11.0 | 0.00 | 0.09 | 0.00 | 65 | 1011.0 |
| 20260506141509 | 62 | 128 | 3.0 | 9.0 | 0.00 | 0.09 | 0.00 | 60 | 1011.0 |
| 20260506134512 | 62 | 100 | 3.0 | 7.0 | 0.00 | 0.09 | 0.00 | 59 | 1011.1 |
| 20260506133038 | 63 | 129 | 3.0 | 8.0 | 0.00 | 0.09 | 0.00 | 59 | 1011.1 |
| 20260506131655 | 63 | 89 | 1.0 | 6.0 | 0.00 | 0.09 | 0.00 | 56 | 1011.1 |
| 20260506124504 | 61 | 75 | 7.0 | 10.0 | 0.00 | 0.09 | 0.00 | 62 | 1011.4 |
| 20260506123030 | 61 | 98 | 5.0 | 8.0 | 0.00 | 0.09 | 0.00 | 58 | 1011.5 |
| 20260506121547 | 62 | 93 | 4.0 | 11.0 | 0.00 | 0.09 | 0.00 | 60 | 1011.4 |
| 20260506120057 | 61 | 89 | 4.0 | 10.0 | 0.00 | 0.09 | 0.00 | 61 | 1011.4 |
| 20260506114622 | 63 | 137 | 7.0 | 12.0 | 0.00 | 0.17 | 0.00 | 53 | 1011.5 |
| 20260506113127 | 64 | 159 | 4.0 | 9.0 | 0.00 | 0.17 | 0.00 | 49 | 1011.5 |
| 20260506111639 | 63 | 178 | 9.0 | 11.0 | 0.00 | 0.17 | 0.00 | 48 | 1011.6 |
| 20260506110119 | 64 | 317 | 3.0 | 5.0 | 0.00 | 0.17 | 0.00 | 50 | 1011.8 |
| 20260506104639 | 62 | 243 | 2.0 | 8.0 | 0.00 | 0.19 | 0.00 | 51 | 1011.9 |
| 20260506103201 | 62 | 183 | 3.0 | 11.0 | 0.00 | 0.19 | 0.00 | 51 | 1011.8 |
| 20260506101532 | 61 | 84 | 2.0 | 10.0 | 0.00 | 0.19 | 0.00 | 53 | 1011.9 |
| 20260506100003 | 61 | 276 | 3.0 | 9.0 | 0.00 | 0.19 | 0.00 | 54 | 1012.0 |
| 20260506094614 | 60 | 211 | 7.0 | 14.0 | 0.00 | 0.19 | 0.00 | 54 | 1012.1 |
| 20260506093134 | 59 | 241 | 9.0 | 18.0 | 0.00 | 0.19 | 0.00 | 58 | 1011.9 |